SCP
1 1 1 1 1 1 1 1 1 1 1 1 0 0 1 1 1 2 1 0 1 1 2 2 3 3 3 4 4 4 4 4 4 4 4 4 4 4 4 4 4 4 4 4 4 4 3 3 3
1 1 1 1 1 1 1 1 1 1 1 1 1 1 1 2 2 1 1 0 1 1 2 2 3 3 3 3 4 4 4 4 4 3 3 4 4 4 4 4 4 4 4 4 4 4 3 3 2
1 1 1 1 1 1 1 1 1 1 1 1 1 2 2 3 2 1 1 1 1 1 2 2 3 3 3 3 3 3 3 3 3 3 3 3 3 3 3 3 3 3 3 3 3 3 3 2 2
1 1 1 1 1 1 1 1 1 1 1 1 2 2 3 2 2 1 0 0 1 1 1 2 3 3 3 3 3 3 3 3 2 2 2 2 2 2 2 2 2 3 3 3 3 3 2 2 2
1 1 1 1 1 1 1 1 1 1 1 1 1 2 2 2 1 1 0 0 1 1 1 2 3 3 2 2 2 2 2 2 2 2 2 2 2 2 2 2 2 2 2 2 2 2 2 2 2
1 1 1 1 1 1 1 1 1 1 1 1 1 1 2 2 1 1 0 0 0 1 1 2 2 2 2 2 2 2 2 2 2 2 2 2 2 2 1 1 1 2 2 2 2 2 2 2 3
0 0 1 1 1 1 1 1 1 1 1 1 1 1 2 2 1 1 1 0 0 0 1 1 2 2 1 2 2 2 2 2 2 2 2 2 1 1 1 1 1 1 1 1 1 1 2 2 2
0 0 0 1 1 1 1 1 1 1 1 1 1 1 1 2 2 1 1 1 1 1 1 1 1 1 1 1 1 1 1 2 2 2 2 2 1 1 1 1 1 1 1 1 1 1 1 2 2
0 0 0 0 0 0 0 1 1 1 1 2 1 1 2 2 2 2 1 1 1 1 1 1 1 1 1 1 1 1 1 1 2 2 2 2 1 1 1 1 1 1 1 1 1 1 1 1 2
0 0 0 0 0 0 0 0 1 1 1 2 2 2 2 2 2 2 2 2 2 1 1 1 1 1 1 1 1 1 1 1 2 2 2 2 1 1 1 1 1 1 1 1 1 1 1 1 1
0 0 0 0 0 0 0 0 0 1 1 2 2 2 3 3 2 2 2 2 2 2 1 1 1 1 1 1 1 1 1 2 2 2 2 2 1 1 1 1 1 1 1 1 1 1 1 1 1
0 0 0 0 0 0 0 0 0 1 1 2 2 2 2 3 2 2 2 2 2 2 2 1 1 1 1 1 1 1 1 2 2 2 2 2 1 1 1 1 1 1 1 1 1 1 1 1 1
0 0 0 0 0 0 0 0 1 1 1 2 2 2 2 2 2 2 2 2 2 2 2 2 2 2 2 2 1 1 1 2 2 2 2 2 1 1 1 1 1 1 1 1 1 1 1 1 1
0 0 0 0 0 0 0 1 1 1 1 2 2 2 2 2 2 2 2 2 2 2 2 3 3 3 2 2 2 1 1 2 2 2 2 2 1 1 1 1 1 1 1 1 1 1 1 1 2
0 0 0 0 0 0 0 1 1 1 1 1 2 2 2 1 1 2 2 2 2 2 3 3 3 3 3 2 2 2 1 1 1 1 1 1 1 1 1 1 1 1 1 1 1 1 1 1 2
0 0 0 0 0 0 0 1 1 1 1 2 2 2 2 2 2 2 2 3 2 2 3 4 3 3 2 2 2 2 1 1 1 1 1 1 1 1 1 1 1 1 1 1 1 1 2 2 1
0 0 0 0 0 0 0 1 1 1 1 1 2 3 3 3 2 2 3 3 3 3 3 4 3 3 2 2 2 2 2 2 2 2 1 1 2 2 2 2 2 2 2 2 2 2 2 2 2
0 0 0 0 1 1 1 1 1 1 1 1 2 3 4 3 3 3 3 3 3 3 4 4 4 3 3 2 2 2 2 2 2 2 2 2 2 2 2 3 3 3 3 4 4 4 3 3 3
0 0 0 1 1 1 1 1 1 1 1 1 2 3 4 4 3 3 3 3 3 4 4 4 3 3 3 3 3 3 3 3 2 2 2 2 2 3 3 3 4 5 5 5 5 5 4 4 4
0 0 0 1 1 1 1 1 1 1 1 1 2 3 4 4 4 4 4 4 4 4 4 3 3 2 2 3 3 3 3 3 3 3 3 3 3 3 4 4 5 6 7 6 6 6 5 5 5
0 0 0 0 1 1 1 1 1 1 1 1 2 2 3 4 4 4 4 4 4 4 3 3 2 2 2 2 3 3 3 3 3 3 4 4 4 4 5 6 6 7 8 8 7 7 7 6 6
0 0 0 0 0 1 1 1 1 1 1 1 2 2 2 3 4 4 4 4 4 4 4 3 3 3 2 3 3 3 3 4 4 4 5 5 5 6 6 7 8 8 9 9 8 8 7 7 7
0 0 0 0 0 0 0 0 0 1 1 1 2 2 2 2 3 3 3 4 4 5 4 4 3 3 3 3 4 4 4 4 5 5 6 6 7 7 7 8 8 9 8 8 7 8 7 7 6
0 0 0 0 0 0 0 0 0 1 1 1 1 2 2 3 3 3 3 3 4 5 5 5 4 4 4 4 4 5 5 6 6 7 7 7 7 7 7 7 7 7 7 6 6 6 6 5 5
0 0 0 0 0 0 0 0 0 1 1 1 2 2 3 3 3 3 3 3 4 5 5 5 5 5 5 5 5 6 6 7 7 7 8 7 6 5 5 4 5 5 5 4 4 4 4 4 4
0 0 0 0 0 0 0 0 1 1 1 1 2 3 4 4 4 4 4 4 4 5 5 5 5 5 6 6 6 7 7 7 7 8 7 6 4 3 3 3 3 3 3 3 3 3 3 3 3
0 0 0 0 0 0 0 0 1 1 1 2 3 4 5 6 5 4 4 4 4 4 5 5 5 6 6 6 7 7 8 7 7 7 6 4 3 2 2 2 2 3 3 3 3 3 3 3 3
0 0 0 0 0 0 0 0 1 1 1 2 3 4 5 6 6 5 4 4 3 4 5 6 6 6 7 7 7 7 7 7 6 5 4 3 3 3 2 2 2 2 3 3 3 3 3 3 3
0 0 0 0 0 0 0 0 1 1 2 2 3 4 5 5 5 4 4 3 4 4 5 6 7 7 7 7 7 6 5 5 4 4 3 3 3 3 3 3 3 3 3 3 3 3 3 3 3
0 0 0 0 0 0 0 1 1 2 2 2 2 3 4 4 5 5 4 4 4 5 6 7 7 8 8 8 7 5 4 4 4 4 4 4 4 3 3 3 3 3 3 3 3 2 2 2 2
Wind_Speed
9 7 6 6 5 6 13 11 9 9 8 8 7 6 8 10 8 11 9 11 11 12 12 13 12 13 13 13 14 14 15 15 15 15 14 15 15 15 15 15 15 16 17 17 16 16 16 16 16
5 4 6 6 1 9 12 9 10 10 9 8 7 7 9 10 9 11 10 11 12 12 12 12 13 13 13 13 13 14 14 15 14 14 14 15 15 15 15 15 15 16 16 16 16 16 16 16 15
5 7 6 1 7 10 11 9 10 9 7 6 6 7 7 8 9 8 11 13 12 12 12 14 13 13 13 13 12 13 14 14 14 14 14 14 14 15 15 15 15 15 16 16 16 16 15 15 14
5 6 5 2 11 10 9 9 8 8 8 6 7 10 8 7 6 10 14 13 13 12 13 15 12 13 13 12 12 12 13 13 14 14 14 14 14 14 15 15 15 15 15 15 15 15 14 14 14
6 6 2 6 10 8 7 7 5 6 6 7 7 10 10 7 10 14 13 13 13 13 13 15 13 13 12 12 12 12 12 13 13 14 14 14 14 14 15 15 14 14 14 15 14 14 13 13 12
5 5 1 7 9 7 6 5 4 7 9 8 9 12 9 9 13 13 13 11 12 13 13 14 13 12 12 12 12 12 12 12 13 13 14 14 14 14 14 15 14 14 13 13 13 13 13 13 12
5 2 3 6 8 7 6 4 4 6 7 8 7 10 10 11 12 12 12 10 11 11 12 12 13 12 12 11 12 11 11 12 12 13 13 14 14 13 14 14 13 13 12 12 12 12 12 11 11
5 3 4 5 6 8 6 4 4 5 8 8 5 8 11 14 13 13 12 10 10 10 10 10 10 10 11 12 12 11 11 11 12 12 13 13 14 13 12 12 12 12 12 11 11 11 11 10 10
6 5 4 5 4 7 7 6 6 5 9 7 4 5 14 19 16 14 12 11 10 9 8 9 10 9 9 10 12 11 11 10 10 11 11 10 9 10 9 13 11 11 11 10 10 10 10 10 10
6 3 5 4 3 4 6 5 7 7 9 8 9 12 18 18 16 15 14 13 12 11 10 8 9 9 8 7 8 7 7 7 6 7 7 5 6 5 8 11 10 10 10 10 9 9 9 6 7
4 0 4 2 2 1 5 5 6 6 6 8 12 17 19 18 16 14 13 12 12 11 10 9 8 7 7 6 5 4 4 5 6 7 6 5 5 5 6 6 7 7 8 7 8 7 4 3 4
3 2 0 1 1 2 3 5 5 3 3 7 12 18 19 19 17 15 13 12 12 11 10 9 9 7 5 5 5 5 4 4 4 6 5 5 3 3 4 3 4 4 3 3 3 3 4 3 4
5 3 2 1 3 3 4 5 4 3 5 10 15 18 18 17 15 13 13 12 11 11 10 9 9 8 7 5 4 4 4 4 4 4 4 3 4 3 4 2 2 2 3 4 2 3 4 3 3
3 3 3 3 3 4 6 6 5 4 9 13 16 16 16 16 16 14 13 12 12 12 11 10 9 8 7 6 4 4 4 3 3 3 4 3 3 3 3 3 2 2 2 2 1 3 3 2 1
5 6 6 4 5 5 7 8 6 7 11 13 15 15 15 15 15 14 14 13 12 12 11 11 10 9 8 7 6 5 4 5 4 4 4 4 4 4 3 3 3 2 2 3 1 2 1 2 2
9 10 9 7 6 6 10 8 8 10 12 13 13 14 14 14 15 13 13 12 12 11 11 11 10 10 9 7 5 4 4 4 4 4 4 5 4 4 3 3 2 2 2 2 2 2 1 1 1
11 12 10 9 6 6 10 5 9 10 11 12 13 14 14 14 15 13 13 13 12 12 11 11 10 10 10 8 6 5 4 4 4 4 4 5 5 5 4 3 2 3 3 2 3 2 2 2 1
13 12 11 9 7 8 10 5 7 9 11 12 13 13 14 14 15 14 13 12 12 11 11 11 11 10 9 8 6 5 6 5 5 4 4 5 5 5 5 4 4 4 3 2 2 1 2 2 3
8 11 10 7 5 8 9 7 7 8 10 11 12 13 14 13 14 14 13 13 12 12 12 12 12 10 9 7 7 7 7 6 5 5 6 6 6 6 6 4 4 4 3 3 4 4 4 4 3
10 12 10 7 5 7 8 9 7 9 11 11 12 13 14 14 13 14 14 14 14 13 13 13 12 12 11 8 7 5 5 5 5 4 5 6 7 7 7 6 5 5 4 5 5 5 4 3 4
13 12 10 8 6 7 8 11 10 9 10 10 11 12 13 14 15 15 15 15 15 15 15 13 13 13 12 10 8 6 5 5 5 6 6 6 7 8 7 7 6 5 6 5 6 6 7 5 4
12 9 8 9 9 8 9 10 11 11 11 12 12 12 13 14 15 15 16 16 16 15 14 14 13 13 12 12 10 10 8 7 7 6 5 6 7 7 7 7 7 6 6 5 7 6 5 6 5
8 7 9 10 10 9 10 11 8 10 11 12 12 13 13 14 14 15 16 16 15 15 14 14 14 13 13 12 11 11 9 7 5 6 6 6 6 7 8 7 7 7 6 6 7 5 6 6 6
8 9 7 8 10 13 12 11 9 9 10 9 9 11 11 13 14 14 13 14 13 14 14 14 14 14 13 13 12 11 10 9 8 7 6 7 6 6 8 7 7 7 7 7 7 7 8 7 7
14 13 9 11 11 10 8 10 7 3 5 6 7 8 9 11 12 13 13 13 13 14 14 13 14 14 13 13 12 12 11 10 10 9 8 7 6 5 6 6 6 7 7 7 7 7 7 8 8
17 17 10 9 11 8 8 10 5 3 3 4 5 5 6 9 10 11 12 12 12 13 12 12 13 13 13 13 12 11 11 8 7 8 7 6 5 5 5 6 7 7 7 8 7 7 8 7 8
17 16 12 8 7 8 9 7 5 5 6 5 5 5 6 7 8 10 10 10 10 11 11 11 12 11 11 12 11 10 10 9 8 7 7 6 5 5 5 6 7 7 7 7 7 7 8 7 8
12 14 9 10 9 11 9 10 7 10 8 7 6 5 5 5 6 7 8 8 8 8 9 9 9 10 10 10 9 8 9 9 8 7 7 6 5 5 5 6 7 7 7 7 7 7 7 7 8
13 16 12 11 9 9 8 6 4 6 5 6 5 5 5 5 6 6 6 7 7 7 8 8 8 8 8 8 8 8 8 8 8 7 6 6 5 5 5 6 6 6 6 6 6 7 7 8 8
14 14 15 12 9 9 7 5 6 4 4 4 5 6 5 5 5 5 6 6 6 6 7 7 7 8 8 7 7 7 7 7 7 6 6 5 5 5 5 5 5 6 5 5 6 7 7 7 8
Wind_Direction
215 213 230 240 227 78 68 67 68 80 74 70 67 57 57 41 36 83 109 124 121 117 115 116 106 106 104 104 106 106 106 106 106 106 106 105 104 104 104 103 102 101 101 101 102 104 105 106 107
226 218 235 242 22 77 70 68 71 68 89 100 80 71 72 66 65 102 123 124 125 120 120 112 109 108 105 103 105 107 107 107 106 106 106 105 105 104 103 102 102 102 102 102 102 102 103 105 105
231 239 263 257 56 60 76 79 87 92 97 97 87 63 60 79 99 112 123 132 126 120 116 110 113 110 107 105 104 106 107 108 108 106 107 106 106 104 103 103 103 103 104 102 101 101 101 103 104
244 230 234 78 78 64 74 96 106 110 95 87 101 90 80 81 105 122 131 135 129 125 119 113 116 112 109 108 106 106 108 108 108 108 107 106 105 105 104 103 103 103 104 103 102 101 102 105 105
247 257 184 96 80 81 86 97 107 92 91 97 102 102 92 89 115 127 136 139 132 124 119 118 117 112 110 109 108 106 107 110 110 109 109 108 108 106 104 104 104 104 104 104 103 103 104 107 107
247 247 151 95 93 99 104 107 102 93 104 110 115 111 94 120 131 137 137 136 130 126 123 120 120 116 113 112 112 110 109 111 111 110 110 110 108 107 107 107 106 106 105 104 104 104 103 104 104
283 274 86 96 108 111 108 113 105 104 114 111 119 111 119 140 140 138 137 139 129 128 127 129 131 127 119 113 113 113 111 112 113 111 111 110 108 107 107 108 108 108 106 105 105 106 108 108 108
296 256 140 113 109 100 119 125 108 119 104 116 137 130 143 150 148 143 142 137 133 133 132 131 130 131 135 127 118 115 113 114 115 114 114 115 116 114 115 116 110 110 109 108 108 108 110 112 111
266 241 139 106 100 105 132 141 123 115 127 134 116 109 129 143 150 149 147 146 144 140 138 139 135 139 136 129 128 130 124 120 128 123 126 142 134 124 130 103 112 114 113 112 111 114 119 125 123
252 228 90 73 54 102 140 148 138 157 148 139 126 116 130 149 157 159 160 158 155 152 151 149 142 145 139 132 134 142 134 131 131 123 133 128 106 107 107 114 117 119 120 121 116 125 151 173 138
246 305 90 110 63 99 154 146 159 174 163 158 153 147 151 159 163 167 167 163 158 158 157 152 148 151 142 139 142 133 123 127 128 124 127 116 127 126 125 136 138 141 149 140 140 166 151 122 99
219 147 170 96 88 222 176 162 168 190 79 122 148 152 158 166 170 172 169 167 162 165 162 156 152 155 152 144 140 147 141 142 134 133 149 133 127 126 118 131 133 149 137 126 138 122 107 101 115
213 180 188 234 231 223 202 184 171 147 121 131 143 155 165 170 172 172 170 169 167 170 168 162 165 160 158 151 163 150 145 140 131 136 134 141 144 138 123 120 130 144 130 146 142 127 121 125 135
202 218 219 225 204 184 194 176 180 139 139 145 154 163 171 172 172 172 174 175 176 177 173 169 173 167 165 167 169 158 155 148 151 151 139 158 142 130 139 150 146 133 142 119 132 128 140 156 131
216 216 199 185 188 178 193 188 183 147 153 159 165 168 172 175 177 180 180 181 182 181 175 176 176 174 176 178 180 176 171 171 167 152 155 172 163 147 166 154 170 153 142 137 172 141 173 186 169
209 215 201 163 185 179 214 198 150 161 169 170 171 170 175 178 184 185 183 185 184 182 179 183 183 178 180 183 191 188 187 178 178 175 169 177 172 172 190 174 172 155 179 177 169 195 215 195 195
203 210 199 162 182 189 221 198 143 171 181 178 177 177 181 181 188 188 188 188 186 185 183 186 190 184 185 185 191 198 190 198 195 187 183 176 187 188 204 191 158 196 204 206 220 160 225 212 222
200 205 199 185 170 204 216 196 157 181 194 190 184 184 186 189 190 188 190 189 187 187 187 189 190 189 188 190 192 202 200 199 202 197 189 190 194 197 211 199 186 211 213 212 226 208 230 251 239
221 213 202 178 164 211 212 206 187 186 200 199 194 191 193 196 189 187 189 191 189 188 189 191 193 188 192 196 199 198 199 201 201 202 192 198 206 203 213 219 184 214 218 227 228 223 213 225 225
215 213 198 171 175 223 214 215 201 197 208 207 202 200 197 193 188 189 191 193 194 191 192 192 195 193 198 200 205 208 209 207 205 211 193 205 208 210 208 212 209 206 219 224 228 228 244 236 215
212 214 202 185 175 209 223 221 209 202 211 211 211 208 202 196 193 191 194 195 196 195 195 197 198 197 201 200 201 198 196 214 208 209 204 208 211 214 223 217 223 217 225 226 229 228 233 242 232
207 210 209 199 208 201 218 233 200 199 204 209 211 209 205 200 197 193 194 197 198 198 196 198 198 200 200 201 207 206 207 210 210 212 210 208 214 220 220 226 229 229 234 235 236 226 233 241 242
201 181 207 214 225 230 210 246 205 188 211 211 210 209 207 199 198 196 195 196 198 197 195 196 197 200 199 202 206 211 218 218 214 215 217 224 217 224 224 222 228 231 235 237 243 239 235 238 244
167 168 184 216 227 229 219 236 228 198 216 213 205 206 206 200 197 196 196 193 196 197 198 197 195 199 199 202 207 211 219 220 221 221 219 219 218 221 223 224 225 229 235 234 236 238 235 241 245
192 187 190 200 212 223 197 229 237 191 213 224 217 206 204 200 196 193 194 193 194 197 198 198 195 198 199 202 206 209 217 219 223 228 225 228 225 219 215 225 226 233 233 236 236 235 241 238 240
203 209 218 215 212 196 183 228 217 165 205 220 220 210 201 195 193 191 190 190 191 193 195 195 195 197 197 200 205 208 211 215 221 222 232 227 233 233 224 224 229 238 242 240 236 241 237 236 238
200 217 235 249 237 224 194 204 204 190 198 197 195 194 192 188 185 187 188 188 188 189 190 192 192 195 197 199 201 203 207 213 218 216 221 229 229 230 223 230 234 237 241 244 241 244 245 240 239
219 206 211 229 221 222 208 210 205 181 189 182 177 174 169 169 169 174 178 182 182 183 184 187 189 191 194 197 200 200 203 206 211 216 218 224 230 235 232 232 238 241 243 244 247 250 246 245 244
197 203 212 220 237 235 211 194 155 174 178 178 163 154 150 155 158 163 165 170 173 174 174 176 181 185 188 193 196 200 198 199 202 209 215 218 223 228 234 235 241 244 245 246 244 251 250 247 249
203 205 206 210 211 242 250 146 116 147 153 156 142 135 129 132 134 143 151 156 162 168 168 167 173 181 183 183 187 195 196 195 197 198 204 207 213 223 229 235 241 248 247 251 253 253 253 254 255